Overview Statistics Trail Chart Weather Telemetry Raw packets
 

This is the latest recevied weather packets stored in our database for station/object VE8SKI. If no packets are shown the sender has not sent any weather packets the latest 10 day(s).

<< 102 103 104 105 106 107 108 >>
Time Temp. Humidity Pressure Rain* Wind** Luminosity Snow
1777333472 -0.56° C 69% 1018.9 hPa 0 mm 1.34 m/s, 225° - -
1777333172 -1.11° C 70% 1018.9 hPa 0 mm 1.79 m/s, 291° - -
1777332873 -1.11° C 70% 1018.8 hPa 0 mm 1.34 m/s, 201° - -
1777332573 -1.11° C 70% 1018.9 hPa 0 mm 2.24 m/s, 249° - -
1777332274 -1.67° C 70% 1018.8 hPa 0 mm 2.68 m/s, 205° - -
1777331971 -1.11° C 69% 1018.8 hPa 0 mm 2.24 m/s, 253° - -
1777331672 -0.56° C 69% 1018.8 hPa 0 mm 0.89 m/s, 198° - -
1777331372 -1.11° C 69% 1018.9 hPa 0 mm 1.79 m/s, 186° - -
1777331073 -1.11° C 69% 1018.8 hPa 0 mm 1.79 m/s, 301° - -
1777330773 -0.56° C 68% 1018.9 hPa 0 mm 1.79 m/s, 283° - -
1777330474 -0.56° C 69% 1018.9 hPa 0 mm 1.34 m/s, 211° - -
1777330172 -1.11° C 68% 1018.8 hPa 0 mm 1.79 m/s, 231° - -
1777329872 -0.56° C 69% 1018.9 hPa 0 mm 1.34 m/s, 305° - -
1777329572 -1.11° C 69% 1018.9 hPa 0 mm 2.68 m/s, 267° - -
1777329273 -1.11° C 69% 1019 hPa 0 mm 1.34 m/s, 325° - -
1777328973 -1.11° C 68% 1019 hPa 0 mm 2.24 m/s, 231° - -
1777328674 -0.56° C 68% 1019 hPa 0 mm 0.89 m/s, 277° - -
1777328371 -0.56° C 67% 1019 hPa 0 mm 1.79 m/s, 259° - -
1777328072 -0.56° C 68% 1019 hPa 0 mm 1.34 m/s, 260° - -
1777327772 -0.56° C 68% 1019 hPa 0 mm 1.34 m/s, 249° - -
1777327473 -1.11° C 68% 1019 hPa 0 mm 1.79 m/s, 333° - -
1777327173 -1.11° C 68% 1019 hPa 0 mm 2.24 m/s, 309° - -
1777326874 -0.56° C 69% 1019 hPa 0 mm 1.34 m/s, 15° - -
1777326572 -0.56° C 68% 1019 hPa 0 mm 1.34 m/s, 357° - -
1777326272 -0.56° C 67% 1019 hPa 0 mm 1.34 m/s, 278° - -

* Rain latest hour (hover to see other rain measurements)
** Current wind speed in m/s (hover to see current wind gust speed)